Akraberg, Faroe Islands

11:54 AM WEST on October 21, 2017 (GMT +0100)
Vagar | | Change Station

Elev 279 ft 62.07 °N, 7.27 °W | Updated 4 minutes ago

Mostly Cloudy
Mostly Cloudy
52 °F
Feels Like 52 °F
N
24
Wind Variable Wind from ESE

Today
High -- | Low -- °F
--% Chance of Precip.
Yesterday
High -- | Low -- °F
Precip. -- in
Pressure 29.44 in
Visibility 5.0 miles
Clouds Overcast 700 ft
Dew Point 52 °F
Humidity 100%
Rainfall 0.00 in
Snow Depth Not available.
8:25 AM 5:55 PM
Waxing Crescent, 3% visible
METAR EKVG 211050Z AUTO 11021KT 8000NDV -RA OVC007/// 11/11 Q0997
Pressure 29.44 in
Visibility 5.0 miles
Clouds Overcast 700 ft
Dew Point 52 °F
Humidity 100%
Rainfall 0.00 in
Snow Depth Not available.
8:25 AM 5:55 PM
Waxing Crescent, 3% visible
METAR EKVG 211050Z AUTO 11021KT 8000NDV -RA OVC007/// 11/11 Q0997

Get Severe Weather Alerts

Thanks for signing up!

Be on the lookout for a verification email in your inbox.

You'll start receiving the daily forecast at 6 AM.

×

10-Day Weather Forecast

No radar image for this location.
×

Almanac

Astronomy

Oct. 21, 2017 Rise Set
Actual Time
Civil Twilight
Nautical Twilight
Astronomical Twilight
Moon
Length of Visible Light
Length of Day
Tomorrow will be .
, % of the Moon is Illuminated

Today's Extremes

Country Highs Country Lows

Community

WunderPhotos

Category 6

Welcome to Category 6. This is the collective home for Weather Underground's featured writeups by Dr. Jeff Masters (right), Bob Henson (left), Chris Burt, and other regular contributors.

Nearby

Air Quality

  Air Quality AQ Index Pollutant
Not available.

Snow Depth

Station Depth Elevation

Earthquake Activity

City Distance Mag. Time & Date
Minimum magnitude displayed is 2.5.

Coastal Water Temperatures

Place Temperature

Stations

Nearby Weather Stations

Station Location Temp. Windchill Dew Point Humidity Wind Precip. Elev Updated Type